Weather observations for the past three days for
Nuiqsut, Nuiqsut Airport
| Date | Time (akdt) | Wind (mph) | Vis. (mi.) | Weather | Sky Cond. | Temperature (ºF) | Relative Humidity | Wind Chill (°F) | Heat Index (°F) | Pressure | Precipitation (in) | ||||||
|---|---|---|---|---|---|---|---|---|---|---|---|---|---|---|---|---|---|
| Air | Dwpt | 6 hour | altimeter (in) | sea level (mb) | 1 hr | 3 hr | 6 hr | ||||||||||
| Max. | Min. | ||||||||||||||||
| 10 | 11:53 | NE 25 G 35 | 1.25 | Unknown Precip and Breezy | BKN006 | 15.1 | 8.1 | 74% | -3 | 29.94 | 1013.8 | ||||||
| 10 | 10:53 | NE 22 G 31 | 1.00 | Blowing Snow and Breezy | OVC005 | 12.9 | 7 | 77% | -5 | 29.94 | 1013.8 | ||||||
| 10 | 09:53 | NE 21 | 1.00 | Blowing Snow and Breezy | OVC004 | 12 | 5 | 12 | 9 | 73% | -5 | 29.94 | 1014.1 | ||||
| 10 | 08:53 | NE 20 | 1.25 | Blowing Snow | OVC004 | 10 | 3.9 | 76% | -8 | 29.94 | 1014.0 | ||||||
| 10 | 07:53 | NE 18 | 2.50 | Blowing Snow | OVC003 | 9 | 3 | 77% | -8 | 29.94 | 1014.1 | ||||||
| 10 | 06:53 | NE 17 | 2.00 | Blowing Snow | OVC003 | 9 | 3 | 77% | -8 | 29.95 | 1014.3 | ||||||
| 10 | 05:53 | NE 16 | 2.50 | Blowing Snow | OVC003 | 9 | 3 | 77% | -7 | 29.95 | 1014.1 | ||||||
| 10 | 04:53 | NE 16 | 2.50 | Blowing Snow | OVC004 | 10 | 3.9 | 76% | -6 | 29.95 | 1014.3 | ||||||
| 10 | 03:53 | NE 20 | 10.00 | A Few Clouds | FEW004 | 10.9 | 5 | 19.9 | 10.9 | 77% | -6 | 29.95 | 1014.1 | ||||
| 10 | 02:53 | NE 17 | 10.00 | Fair | CLR | 12 | 7 | 80% | -4 | 29.95 | 1014.2 | ||||||
| 10 | 01:53 | NE 21 | 10.00 | Fair and Breezy | CLR | 14 | 8.1 | 77% | -3 | 29.95 | 1014.3 | ||||||
| 10 | 00:53 | NE 20 | 10.00 | Fair | CLR | 16 | 10 | 77% | 0 | 29.95 | 1014.2 | ||||||
| 09 | 23:53 | NE 20 | 10.00 | Mostly Cloudy | SCT015 BKN049 | 18 | 12 | 77% | 3 | 29.95 | 1014.3 | ||||||
| 09 | 22:53 | NE 23 | 6.00 | Overcast with Haze and Breezy | OVC009 | 19.9 | 14 | 78% | 4 | 29.95 | 1014.4 | ||||||
| 09 | 21:53 | NE 25 G 36 | 7.00 | Overcast and Breezy | OVC009 | 19.9 | 15.1 | 25 | 19.9 | 81% | 3 | 29.95 | 1014.4 | ||||
| 09 | 20:53 | NE 24 | 4.00 | Overcast with Haze and Breezy | OVC008 | 21.9 | 17.1 | 82% | 6 | 29.96 | 1014.5 | ||||||
| 09 | 19:53 | NE 22 | 7.00 | Overcast and Breezy | OVC008 | 23 | 17.1 | 78% | 9 | 29.97 | 1014.8 | ||||||
| 09 | 18:53 | NE 25 | 5.00 | Overcast with Haze and Breezy | OVC009 | 23 | 17.1 | 78% | 8 | 29.97 | 1014.9 | ||||||
| 09 | 17:53 | NE 20 | 6.00 | Overcast with Haze | OVC009 | 25 | 19 | 78% | 12 | 29.97 | 1015.0 | ||||||
| 09 | 16:53 | NE 22 G 29 | 10.00 | Overcast and Breezy | OVC010 | 25 | 19 | 78% | 11 | 29.98 | 1015.4 | ||||||
| 09 | 15:53 | NE 22 G 31 | 4.00 | Overcast with Haze and Breezy | OVC010 | 24.1 | 18 | 24.1 | 19.9 | 77% | 10 | 30 | 1015.8 | ||||
| 09 | 14:53 | NE 24 | 4.00 | Unknown Precip and Breezy | OVC010 | 24.1 | 18 | 77% | 9 | 30.01 | 1016.1 | ||||||
| 09 | 13:53 | NE 21 G 29 | 6.00 | Overcast with Haze and Breezy | OVC011 | 23 | 17.1 | 78% | 9 | 30.02 | 1016.5 | ||||||
| 09 | 12:53 | NE 22 | 6.00 | Overcast with Haze and Breezy | OVC011 | 21.9 | 16 | 78% | 7 | 30.03 | 1016.9 | ||||||
| 09 | 11:53 | NE 18 | 8.00 | Overcast | BKN009 OVC024 | 21 | 15.1 | 78% | 7 | 30.04 | 1017.1 | ||||||
| 09 | 10:53 | NE 20 | 8.00 | Overcast | OVC007 | 19.9 | 15.1 | 81% | 5 | 30.05 | 1017.5 | ||||||
| 09 | 09:53 | NE 17 | 7.00 | Overcast | OVC008 | 19.9 | 14 | 19.9 | 15.1 | 78% | 6 | 30.05 | 1017.8 | ||||
| 09 | 08:53 | NE 14 | 10.00 | Overcast | SCT010 BKN028 OVC035 | 19 | 12.9 | 77% | 6 | 30.06 | 1018.1 | ||||||
| 09 | 07:53 | NE 9 | 10.00 | Overcast | BKN007 OVC033 | 18 | 14 | 84% | 8 | 30.07 | 1018.3 | ||||||
| 09 | 05:53 | N 8 | 7.00 | Unknown Precip | OVC019 | 16 | 10.9 | 80% | 6 | 30.09 | 1018.8 | ||||||
| 09 | 04:53 | NE 10 | 5.00 | Light Snow | OVC018 | 16 | 10 | 77% | 5 | 30.1 | 1019.4 | ||||||
| 09 | 03:53 | NE 12 | 4.00 | Light Snow | OVC018 | 15.1 | 10 | 19.9 | 9 | 80% | 3 | 30.1 | 1019.4 | ||||
| 09 | 02:53 | NE 10 | 10.00 | Unknown Precip | OVC017 | 14 | 9 | 80% | 2 | 30.11 | 1019.6 | ||||||
| 09 | 01:53 | NE 8 | 1.00 | Unknown Precip | SCT009 BKN013 OVC029 | 10 | 5 | 80% | -1 | 30.12 | 1020.0 | ||||||
| 09 | 00:53 | N 6 | 10.00 | Unknown Precip | FEW007 | 10 | 5 | 80% | 1 | 30.13 | 1020.2 | ||||||
| 08 | 23:53 | N 9 | 2.00 | Light Snow Fog/Mist | BKN006 | 14 | 10 | 84% | 3 | 30.13 | 1020.4 | ||||||
| 08 | 22:53 | N 10 | 10.00 | Overcast | OVC006 | 18 | 12.9 | 81% | 7 | 30.14 | 1020.5 | ||||||
| 08 | 21:53 | NE 12 | 10.00 | Overcast | OVC009 | 19.9 | 14 | 21.9 | 19.9 | 78% | 9 | 30.14 | 1020.5 | ||||
| 08 | 20:53 | NE 9 | 6.00 | Unknown Precip | OVC009 | 19.9 | 14 | 78% | 10 | 30.14 | 1020.8 | ||||||
| 08 | 19:53 | NE 10 | 9.00 | Unknown Precip | OVC010 | 21 | 14 | 74% | 11 | 30.15 | 1021.0 | ||||||
| 08 | 18:53 | NE 10 | 7.00 | Unknown Precip | BKN010 OVC028 | 21 | 14 | 74% | 11 | 30.15 | 1021.2 | ||||||
| 08 | 17:53 | NE 10 | 10.00 | Overcast | BKN010 OVC024 | 21 | 14 | 74% | 11 | 30.16 | 1021.3 | ||||||
| 08 | 16:53 | NE 9 | 10.00 | Unknown Precip | FEW009 OVC023 | 21 | 14 | 74% | 11 | 30.17 | 1021.6 | ||||||
| 08 | 15:53 | NE 10 | 10.00 | Unknown Precip | SCT010 OVC025 | 21.9 | 15.1 | 24.1 | 21.9 | 75% | 12 | 30.17 | 1021.7 | ||||
| 08 | 14:53 | NE 8 | 10.00 | Unknown Precip | FEW009 SCT028 | 23 | 15.1 | 72% | 15 | 30.18 | 1022.0 | ||||||
| 08 | 13:53 | N 8 | 10.00 | Unknown Precip | BKN008 | 23 | 16 | 74% | 15 | 30.19 | 1022.3 | ||||||
| 08 | 12:53 | N 7 | 10.00 | Unknown Precip | OVC012 | 24.1 | 17.1 | 75% | 17 | 30.19 | 1022.5 | ||||||
| 08 | 11:53 | NE 7 | 10.00 | Unknown Precip | OVC010 | 21.9 | 16 | 78% | 14 | 30.2 | 1022.7 | ||||||
| 08 | 10:53 | SE 3 | 10.00 | Overcast | OVC008 | 21.9 | 17.1 | 82% | 30.2 | 1022.8 | |||||||
| 08 | 09:53 | S 5 | 8.00 | Unknown Precip | OVC008 | 21.9 | 18 | 23 | 19.9 | 85% | 16 | 30.21 | 1023.0 | ||||
| 08 | 08:53 | Calm | 10.00 | Overcast | BKN006 OVC010 | 21.9 | 18 | 85% | 30.22 | 1023.3 | |||||||
| 08 | 07:53 | W 8 | 9.00 | Overcast | OVC003 | 21 | 17.1 | 85% | 12 | 30.22 | 1023.4 | ||||||
| 08 | 06:53 | SW 8 | 4.00 | Fog/Mist | SCT004 OVC008 | 19.9 | 16 | 85% | 11 | 30.23 | 1023.6 | ||||||
| 08 | 05:53 | SW 8 | 2.50 | Fog/Mist | OVC004 | 19.9 | 16 | 85% | 11 | 30.24 | 1023.9 | ||||||
| 08 | 04:53 | SW 7 | 1.75 | Fog/Mist | OVC003 | 19.9 | 16 | 85% | 12 | 30.25 | 1024.3 | ||||||
| 08 | 03:53 | SW 6 | 2.50 | Fog/Mist | OVC004 | 19.9 | 17.1 | 21.9 | 19.9 | 89% | 13 | 30.25 | 1024.5 | ||||
| 08 | 01:53 | W 5 | 6.00 | Fog/Mist | OVC005 | 19.9 | 17.1 | 89% | 14 | 30.26 | 1024.8 | ||||||
| 08 | 00:53 | S 8 | 7.00 | Overcast | OVC011 | 21 | 17.1 | 85% | 12 | 30.26 | 1024.7 | ||||||
| 07 | 23:53 | S 6 | 10.00 | Overcast | OVC011 | 21 | 17.1 | 85% | 14 | 30.26 | 1024.8 | ||||||
| 07 | 22:53 | SW 7 | 10.00 | Overcast | OVC010 | 21.9 | 17.1 | 82% | 14 | 30.27 | 1025.1 | ||||||
| 07 | 21:53 | S 5 | 10.00 | Overcast | OVC009 | 21.9 | 16 | 23 | 21 | 78% | 16 | 30.27 | 1025.0 | ||||
| 07 | 20:53 | Calm | 10.00 | Overcast | OVC010 | 21.9 | 17.1 | 82% | 30.27 | 1025.1 | |||||||
| 07 | 19:53 | SW 3 | 10.00 | Overcast | OVC010 | 21.9 | 17.1 | 82% | 30.28 | 1025.4 | |||||||
| 07 | 18:53 | N 5 | 10.00 | Overcast | OVC009 | 23 | 16 | 74% | 18 | 30.28 | 1025.5 | ||||||
| 07 | 17:53 | W 6 | 10.00 | Overcast | OVC009 | 21.9 | 16 | 78% | 15 | 30.28 | 1025.4 | ||||||
| 07 | 16:53 | W 7 | 10.00 | Unknown Precip | OVC010 | 21 | 16 | 81% | 13 | 30.28 | 1025.5 | ||||||
| 07 | 15:53 | W 5 | 10.00 | Overcast | OVC010 | 21 | 16 | 23 | 19.9 | 81% | 15 | 30.28 | 1025.4 | ||||
| 07 | 14:53 | W 7 | 10.00 | Unknown Precip | OVC010 | 21 | 16 | 81% | 13 | 30.28 | 1025.4 | ||||||
| 07 | 13:53 | W 10 | 10.00 | Unknown Precip | OVC009 | 21.9 | 16 | 78% | 12 | 30.27 | 1025.1 | ||||||
| 07 | 12:53 | W 8 | 10.00 | Unknown Precip | OVC008 | 21.9 | 17.1 | 82% | 13 | 30.26 | 1024.7 | ||||||
| Date | Time (akdt) | Wind (mph) | Vis. (mi.) | Weather | Sky Cond. | Air | Dwpt | Max. | Min. | Relative Humidity | Wind Chill (°F) | Heat Index (°F) | altimeter (in) | sea level (mb) | 1 hr | 3 hr | 6 hr |
| 6 hour | |||||||||||||||||
| Temperature (ºF) | Pressure | Precipitation (in) | |||||||||||||||